Location: Oberkirch
(48.5323°N, 8.0787°E)
Time: 06:45:33
(UTC+00:00)

Cosmos 2016 Rocket - Pass Details

Date: 08 November 2025
Orbit: 946 x 999 km, 83.0° (Epoch: 12 December)

Event Time Altitude Azimuth Distance (km) Brightness Sun altitude
Rises 03:59:50 0° 352° (N) 3,733 7.0 -24.2°
Reaches altitude 10° 04:02:25 10° 356° (N) 2,781 6.3 -23.7°
Maximum altitude 04:08:46 63° 77° (ENE) 1,112 4.5 -22.7°
Drops below altitude 10° 04:15:02 10° 158° (SSE) 2,752 6.6 -21.7°
Sets 04:17:34 0° 162° (SSE) 3,692 7.3 -21.2°
